Location: Wien
(48.2082°N, 16.3738°E)
Time: 01:57:14
(UTC+02:00)

Transit 4A - Pass Details

Date: 22 February 2024
Orbit: 864 x 978 km, 66.8° (Epoch: 14 October)

Event Time Altitude Azimuth Distance (km) Brightness Sun altitude
Exits shadow 02:46:58 26° 27° (NNE) 1,722 9.6 -39.7°
Drops below altitude 10° 02:49:24 10° 32° (NNE) 2,580 10.8 -39.4°
Sets 02:51:56 0° 35° (NE) 3,523 11.7 -39.0°
